Total_Precipitation_Accumulation
0.03 0.03 0.04 0.05 0.05 0.07 0.08 0.09 0.14 0.17 0.21 0.29 0.40 0.58 0.75 0.82 1.00 1.08 1.22 1.25 1.49 1.58 1.75 2.17 2.65 3.02 3.40 3.45 3.53 3.48 3.56 3.74 3.86 3.98 3.96 4.09 4.01 3.97 4.18 4.38 4.44 4.56 4.60 4.44
0.03 0.02 0.02 0.02 0.03 0.06 0.08 0.10 0.18 0.26 0.28 0.38 0.48 0.64 0.83 0.94 0.95 1.15 1.37 1.38 1.82 1.97 1.97 2.20 2.70 3.08 3.42 3.62 3.69 3.80 3.89 3.90 4.01 4.39 4.80 5.13 5.37 5.40 5.32 5.40 5.41 5.26 5.13 5.02
0.02 0.02 0.01 0.03 0.04 0.08 0.10 0.12 0.20 0.33 0.34 0.44 0.58 0.96 1.08 1.05 1.07 1.24 1.48 1.54 1.89 2.14 2.26 2.12 2.27 2.68 3.10 3.41 3.62 3.69 3.93 4.25 4.70 5.24 5.66 5.96 6.23 6.33 6.11 5.86 5.74 5.51 5.27 5.10
0.03 0.02 0.02 0.03 0.04 0.06 0.10 0.10 0.17 0.24 0.32 0.50 0.55 1.06 1.29 1.25 1.32 1.43 1.53 1.47 1.66 1.75 1.99 2.15 2.17 2.40 2.74 3.03 3.30 3.56 3.83 4.41 5.25 5.91 6.35 6.69 6.79 6.73 6.56 6.31 5.93 5.44 5.06 4.71
0.03 0.03 0.03 0.03 0.03 0.03 0.05 0.07 0.13 0.17 0.22 0.38 0.46 0.89 1.24 1.27 1.43 1.57 1.65 1.52 1.57 1.72 1.73 1.83 1.92 2.09 2.46 2.78 3.04 3.38 3.73 4.36 5.05 5.68 6.27 6.67 6.78 6.68 6.44 5.99 5.48 4.94 4.46 4.05
0.03 0.03 0.03 0.02 0.02 0.03 0.04 0.08 0.16 0.23 0.34 0.55 0.49 0.75 1.32 1.53 1.66 1.81 1.77 1.82 2.01 1.92 1.76 1.73 1.73 1.80 2.02 2.34 2.61 3.00 3.39 3.91 4.46 4.85 5.37 5.74 5.90 5.81 5.45 4.93 4.34 3.93 3.64 3.34
0.06 0.05 0.03 0.03 0.03 0.04 0.06 0.14 0.40 0.50 0.58 0.63 0.47 0.84 1.54 1.76 1.71 1.81 1.86 1.98 2.08 1.95 1.88 1.74 1.70 1.70 1.80 2.00 2.27 2.53 2.76 3.19 3.47 3.79 4.22 4.48 4.49 4.33 4.08 3.82 3.58 3.18 2.78 2.45
0.14 0.12 0.06 0.05 0.06 0.06 0.05 0.12 0.43 0.70 0.67 0.65 0.73 1.33 1.91 1.86 1.70 1.64 1.72 1.84 1.86 1.67 1.61 1.61 1.61 1.65 1.77 1.75 1.87 2.04 2.15 2.35 2.51 2.65 2.87 2.93 2.89 2.81 2.80 2.68 2.43 2.17 1.87 1.60
0.22 0.18 0.08 0.05 0.04 0.05 0.07 0.11 0.17 0.36 0.44 0.73 1.22 1.77 2.14 1.91 1.82 1.74 1.60 1.47 1.59 1.51 1.40 1.46 1.53 1.57 1.66 1.61 1.58 1.64 1.66 1.66 1.71 1.73 1.82 1.88 1.88 1.88 1.85 1.77 1.63 1.51 1.39 1.22
0.19 0.19 0.10 0.06 0.05 0.07 0.08 0.11 0.18 0.35 0.72 1.01 1.38 1.88 2.35 2.30 2.21 2.14 1.89 1.58 1.64 1.59 1.53 1.43 1.36 1.44 1.53 1.46 1.42 1.46 1.49 1.36 1.27 1.22 1.24 1.26 1.32 1.30 1.30 1.28 1.20 1.16 1.14 1.07
0.17 0.19 0.16 0.10 0.12 0.15 0.12 0.14 0.21 0.40 0.60 0.99 1.63 2.22 2.19 2.41 2.49 2.30 1.98 1.69 1.68 1.61 1.56 1.54 1.49 1.40 1.37 1.37 1.37 1.30 1.24 1.19 1.13 1.09 1.07 1.02 0.98 0.96 0.95 0.92 0.87 0.85 0.83 0.81
0.18 0.22 0.27 0.17 0.14 0.14 0.17 0.19 0.23 0.49 0.58 0.71 1.37 2.28 2.23 2.42 2.51 2.31 2.25 2.05 1.85 1.82 1.68 1.59 1.53 1.43 1.40 1.27 1.22 1.19 1.14 1.04 0.98 0.98 0.95 0.87 0.82 0.82 0.83 0.79 0.72 0.66 0.67 0.69
0.18 0.33 0.49 0.59 0.47 0.26 0.19 0.18 0.23 0.30 0.45 0.77 1.36 2.23 2.34 2.36 2.26 2.17 2.08 2.06 2.11 2.16 1.98 1.74 1.59 1.36 1.22 1.07 0.98 0.98 0.97 0.93 0.89 0.92 0.93 0.89 0.81 0.76 0.73 0.72 0.66 0.61 0.63 0.63
0.18 0.36 0.67 1.12 0.91 0.46 0.29 0.25 0.29 0.35 0.64 0.95 1.23 1.81 2.11 2.22 2.30 2.34 2.28 2.24 2.14 1.88 1.58 1.43 1.33 1.15 1.03 0.93 0.88 0.84 0.81 0.82 0.83 0.86 0.94 0.94 0.89 0.81 0.74 0.71 0.72 0.67 0.63 0.60
0.22 0.42 0.48 0.52 0.46 0.34 0.32 0.32 0.37 0.43 0.55 0.87 1.17 1.66 2.08 2.18 2.28 2.27 2.27 2.17 1.88 1.64 1.49 1.37 1.24 1.16 1.05 0.91 0.79 0.71 0.70 0.72 0.72 0.80 0.82 0.79 0.76 0.76 0.71 0.68 0.69 0.66 0.62 0.58
0.26 0.50 0.46 0.46 0.40 0.43 0.50 0.49 0.52 0.51 0.60 0.82 1.17 1.73 2.02 2.20 2.24 2.15 2.15 2.05 1.93 1.82 1.71 1.54 1.38 1.25 1.11 0.94 0.83 0.78 0.76 0.76 0.72 0.74 0.75 0.70 0.64 0.64 0.62 0.62 0.57 0.53 0.56 0.59
0.33 0.51 0.63 0.60 0.40 0.62 1.02 0.80 0.70 0.76 0.81 1.05 1.42 1.69 1.65 1.74 1.87 1.96 2.01 1.96 1.91 1.83 1.78 1.69 1.59 1.48 1.29 1.13 1.04 0.97 0.91 0.80 0.75 0.75 0.71 0.69 0.68 0.65 0.60 0.58 0.56 0.54 0.56 0.60
0.33 0.53 0.63 0.68 0.78 1.39 1.37 0.87 0.78 0.87 1.01 0.97 1.12 1.25 1.31 1.37 1.51 1.62 1.68 1.81 1.91 1.89 1.80 1.73 1.62 1.54 1.41 1.25 1.10 0.97 0.85 0.78 0.75 0.74 0.68 0.64 0.64 0.65 0.63 0.65 0.66 0.62 0.58 0.62
0.23 0.49 0.75 0.91 1.23 1.50 1.35 0.89 0.85 1.17 1.43 1.04 0.97 0.99 0.98 1.02 1.23 1.55 1.65 1.76 1.88 1.83 1.75 1.72 1.61 1.51 1.42 1.24 1.06 0.90 0.85 0.77 0.73 0.69 0.62 0.59 0.58 0.62 0.63 0.64 0.65 0.62 0.63 0.66
0.23 0.39 0.79 1.06 1.50 1.81 1.65 0.81 0.58 1.04 1.84 1.17 0.91 0.95 1.05 1.22 1.49 1.50 1.36 1.37 1.56 1.66 1.72 1.69 1.53 1.37 1.26 1.06 0.89 0.82 0.78 0.73 0.69 0.61 0.55 0.53 0.56 0.58 0.57 0.59 0.63 0.64 0.66 0.69
0.54 0.64 0.87 1.18 1.59 1.69 0.99 0.55 0.69 1.58 1.83 1.27 1.11 1.12 1.22 1.41 1.47 1.20 1.06 1.13 1.27 1.43 1.50 1.43 1.34 1.23 1.04 0.85 0.78 0.78 0.72 0.66 0.57 0.51 0.52 0.55 0.58 0.62 0.59 0.61 0.67 0.68 0.65 0.69
0.74 0.99 1.14 1.34 1.70 1.73 0.73 0.57 1.04 1.29 1.00 0.91 0.87 0.85 0.96 0.96 0.89 0.87 0.95 1.08 1.21 1.31 1.29 1.21 1.17 1.06 0.93 0.82 0.81 0.83 0.76 0.63 0.54 0.54 0.55 0.58 0.59 0.50 0.48 0.62 0.65 0.62 0.65 0.68
0.64 0.87 1.08 1.32 1.50 1.20 0.69 0.62 0.68 0.72 0.78 0.73 0.75 0.69 0.73 0.79 0.79 0.81 0.87 1.02 1.11 1.14 1.11 1.00 0.91 0.89 0.88 0.85 0.85 0.86 0.77 0.63 0.61 0.69 0.68 0.63 0.61 0.60 0.62 0.64 0.60 0.58 0.58 0.55
0.63 0.50 0.70 0.96 0.91 0.75 0.64 0.57 0.50 0.48 0.55 0.54 0.56 0.60 0.68 0.81 0.82 0.84 0.82 0.86 0.93 0.93 0.92 0.89 0.84 0.84 0.81 0.77 0.71 0.73 0.66 0.63 0.71 0.76 0.70 0.65 0.66 0.70 0.67 0.59 0.48 0.45 0.41 0.40
0.65 0.75 1.01 1.21 0.97 0.84 0.74 0.59 0.50 0.44 0.41 0.41 0.47 0.51 0.58 0.68 0.70 0.68 0.72 0.73 0.72 0.70 0.73 0.75 0.75 0.72 0.65 0.60 0.55 0.54 0.54 0.58 0.72 0.76 0.71 0.65 0.58 0.56 0.56 0.44 0.32 0.31 0.29 0.26
0.51 0.88 1.38 1.23 0.98 1.02 0.84 0.63 0.52 0.50 0.52 0.50 0.45 0.42 0.45 0.51 0.55 0.55 0.60 0.61 0.57 0.55 0.58 0.61 0.63 0.58 0.55 0.52 0.50 0.50 0.47 0.48 0.62 0.67 0.64 0.55 0.45 0.39 0.34 0.31 0.31 0.25 0.21 0.22